contact:dominique.lefevre@mio.osupytheas.fr, maurice.libes@osupytheas.fr, didier.mallarino@osupytheas.fr
Project:EMSO http://www.emso-fr.org/EMSO-France
Depth: 2436.0 m
Title:EMSO Ligure Ouest : Data MII capteur AQUADOPP
Date,Latitude,Longitude,X_East,Y_North,Z_Up,Amplitude_X,Amplitude_Y,Amplitude_Z,Batterie,SoundSpeed,Heading,Pitch,Roll,Pressure,TIS,Speed,Direction
, degrees North, degrees East, m.s-1, m.s-1,m.s-1, 1, 1, 1, Volt, m.s-1, degree, degree, degree, dbar, degree_C, m.s-1, degree
2019-08-23T00:00:41,42.805,6.029,0.002,-0.018,-0.035,101.0,104.0,101.0,13.3,1505.3,324.7,-0.7,1.8,2470.163,13.33,0.018,173.7
2019-08-23T00:03:42,42.805,6.029,0.0,-0.012,-0.096,103.0,105.0,101.0,13.4,1505.3,323.4,-0.7,1.8,2470.167,13.33,0.012,180.0
2019-08-23T00:06:43,42.805,6.029,-0.008,0.002,-0.042,103.0,105.0,98.0,13.4,1505.3,326.7,-0.7,1.8,2470.166,13.33,0.008,284.0
2019-08-23T00:09:44,42.805,6.029,0.0,-0.005,-0.039,103.0,103.0,100.0,13.3,1505.3,328.3,-0.7,1.9,2470.172,13.33,0.005,180.0
2019-08-23T00:12:45,42.805,6.029,-0.013,0.006,-0.017,103.0,104.0,100.0,13.4,1505.3,323.3,-0.8,1.9,2470.187,13.33,0.014,294.8
2019-08-23T00:15:46,42.805,6.029,0.0,-0.007,-0.024,102.0,104.0,100.0,13.4,1505.3,326.4,-0.7,1.8,2470.129,13.33,0.007,180.0
2019-08-23T00:18:47,42.805,6.029,-0.001,-0.004,-0.01,103.0,104.0,100.0,13.4,1505.3,326.8,-0.7,1.8,2470.139,13.33,0.004,194.0
2019-08-23T00:21:48,42.805,6.029,-0.036,-0.012,-0.047,103.0,106.0,99.0,13.4,1505.3,325.3,-0.7,1.8,2470.176,13.33,0.037,251.6
2019-08-23T00:24:49,42.805,6.029,-0.007,-0.022,-0.032,103.0,105.0,99.0,13.4,1505.3,323.4,-0.7,1.8,2470.162,13.33,0.023,197.6
2019-08-23T00:27:50,42.805,6.029,0.01,0.005,-0.03,104.0,104.0,99.0,13.4,1505.3,325.6,-0.7,1.8,2470.153,13.33,0.011,63.4
2019-08-23T00:30:51,42.805,6.029,0.0,-0.031,-0.037,102.0,105.0,99.0,13.4,1505.3,324.2,-0.7,1.8,2470.211,13.33,0.03,180.0
2019-08-23T00:33:52,42.805,6.029,-0.007,-0.011,0.0,101.0,104.0,100.0,13.4,1505.3,327.4,-0.7,1.8,2470.127,13.33,0.013,212.5
2019-08-23T00:36:53,42.805,6.029,0.0,-0.025,-0.011,103.0,104.0,101.0,13.4,1505.3,326.8,-0.7,1.8,2470.145,13.33,0.025,180.0
2019-08-23T00:39:54,42.805,6.029,0.006,-0.019,-0.006,103.0,104.0,99.0,13.4,1505.3,326.9,-0.7,1.8,2470.119,13.33,0.019,162.5
2019-08-23T00:42:55,42.805,6.029,-0.008,-0.015,-0.032,104.0,104.0,99.0,13.4,1505.3,327.0,-0.8,1.8,2470.132,13.33,0.017,208.1
2019-08-23T00:45:56,42.805,6.029,0.019,-0.049,-0.021,100.0,105.0,101.0,13.4,1505.3,325.2,-0.7,1.9,2470.166,13.33,0.052,158.8
2019-08-23T00:48:57,42.805,6.029,0.002,-0.009,-0.036,104.0,106.0,99.0,13.4,1505.3,323.2,-0.7,1.8,2470.14,13.33,0.009,167.5
2019-08-23T00:51:58,42.805,6.029,-0.043,0.008,-0.067,104.0,105.0,101.0,13.4,1505.3,325.8,-0.7,1.8,2470.086,13.33,0.043,280.5
2019-08-23T00:54:59,42.805,6.029,0.002,-0.009,-0.029,103.0,105.0,101.0,13.4,1505.3,323.5,-0.7,1.9,2470.145,13.33,0.009,167.5
2019-08-23T00:58:00,42.805,6.029,-0.015,-0.008,-0.042,104.0,105.0,99.0,13.3,1505.3,324.6,-0.7,1.8,2470.143,13.33,0.017,241.9
2019-08-23T01:01:01,42.805,6.029,-0.002,-0.025,0.002,104.0,105.0,99.0,13.4,1505.3,323.7,-0.7,1.8,2470.165,13.33,0.025,184.6
2019-08-23T01:04:02,42.805,6.029,-0.024,-0.008,-0.007,102.0,106.0,99.0,13.3,1505.3,324.6,-0.7,1.8,2470.126,13.33,0.025,251.6
2019-08-23T01:07:03,42.805,6.029,-0.021,-0.012,-0.017,103.0,106.0,100.0,13.4,1505.3,325.2,-0.7,1.8,2470.141,13.33,0.024,240.3
2019-08-23T01:10:04,42.805,6.029,0.018,-0.025,-0.003,104.0,105.0,99.0,13.3,1505.3,326.7,-0.7,1.8,2470.119,13.33,0.03,144.2
2019-08-23T01:13:05,42.805,6.029,-0.041,-0.007,-0.039,103.0,104.0,102.0,13.4,1505.3,327.5,-0.7,1.8,2470.139,13.33,0.041,260.3
2019-08-23T01:16:06,42.805,6.029,-0.022,-0.028,-0.025,104.0,104.0,99.0,13.4,1505.3,324.4,-0.7,1.9,2470.112,13.33,0.035,218.2
2019-08-23T01:19:07,42.805,6.029,0.025,0.025,0.011,101.0,104.0,100.0,13.3,1505.3,323.0,-0.7,1.8,2470.186,13.33,0.035,45.0
2019-08-23T01:22:08,42.805,6.029,0.017,-0.008,-0.039,104.0,105.0,99.0,13.4,1505.3,323.1,-0.7,1.9,2470.102,13.33,0.018,115.2
2019-08-23T01:25:09,42.805,6.029,-0.004,-0.031,-0.055,102.0,104.0,99.0,13.3,1505.3,323.3,-0.7,1.8,2470.171,13.33,0.031,187.3
2019-08-23T01:28:10,42.805,6.029,-0.024,-0.005,-0.039,103.0,104.0,100.0,13.3,1505.3,323.5,-0.7,1.8,2470.137,13.33,0.024,258.2
2019-08-23T01:31:11,42.805,6.029,-0.028,0.012,-0.058,102.0,105.0,99.0,13.3,1505.3,328.0,-0.7,1.8,2470.129,13.33,0.03,293.2
2019-08-23T01:34:12,42.805,6.029,0.005,-0.009,-0.01,102.0,105.0,100.0,13.4,1505.3,326.9,-0.7,1.9,2470.108,13.33,0.01,150.9
2019-08-23T01:37:13,42.805,6.029,-0.031,0.005,-0.059,103.0,106.0,97.0,13.4,1505.3,327.9,-0.7,1.9,2470.18,13.33,0.031,279.2
2019-08-23T01:40:14,42.805,6.029,-0.031,-0.004,-0.048,102.0,104.0,99.0,13.3,1505.3,327.4,-0.7,1.9,2470.164,13.33,0.031,262.7
2019-08-23T01:43:15,42.805,6.029,-0.013,-0.007,-0.023,102.0,104.0,100.0,13.3,1505.3,328.1,-0.7,1.8,2470.141,13.33,0.014,241.7
2019-08-23T01:46:16,42.805,6.029,0.009,-0.006,0.008,102.0,106.0,99.0,13.3,1505.3,324.4,-0.7,1.8,2470.136,13.33,0.01,123.7
2019-08-23T01:49:17,42.805,6.029,-0.034,0.004,-0.056,102.0,104.0,98.0,13.4,1505.3,326.1,-0.8,1.9,2470.166,13.33,0.034,276.7
2019-08-23T01:52:18,42.805,6.029,-0.045,-0.017,-0.04,103.0,105.0,100.0,13.4,1505.3,323.9,-0.7,1.8,2470.139,13.33,0.048,249.3
2019-08-23T01:55:19,42.805,6.029,0.013,-0.008,0.004,102.0,104.0,98.0,13.3,1505.3,327.7,-0.7,1.9,2470.143,13.33,0.015,121.6
2019-08-23T01:58:20,42.805,6.029,-0.021,-0.01,-0.056,102.0,104.0,99.0,13.4,1505.3,323.2,-0.7,1.9,2470.137,13.33,0.023,244.5
2019-08-23T02:01:21,42.805,6.029,-0.04,-0.015,-0.053,103.0,105.0,97.0,13.4,1505.3,324.1,-0.7,1.8,2470.162,13.33,0.042,249.4
2019-08-23T02:04:22,42.805,6.029,-0.04,-0.012,-0.064,103.0,103.0,100.0,13.3,1505.3,324.3,-0.7,1.8,2470.107,13.33,0.041,253.3
2019-08-23T02:07:23,42.805,6.029,0.0,-0.014,-0.005,102.0,104.0,99.0,13.4,1505.3,326.6,-0.7,1.8,2470.067,13.33,0.014,180.0
2019-08-23T02:10:24,42.805,6.029,-0.016,-0.001,-0.033,102.0,103.0,99.0,13.3,1505.3,324.8,-0.7,1.8,2470.124,13.33,0.016,266.4
2019-08-23T02:13:25,42.805,6.029,-0.034,0.007,-0.078,104.0,105.0,97.0,13.4,1505.3,325.8,-0.7,1.8,2470.156,13.33,0.034,281.6
2019-08-23T02:16:26,42.805,6.029,-0.001,-0.032,-0.045,102.0,105.0,98.0,13.4,1505.3,327.6,-0.7,1.8,2470.114,13.33,0.032,181.8
2019-08-23T02:19:27,42.805,6.029,0.025,-0.007,0.0,102.0,105.0,100.0,13.4,1505.3,324.7,-0.7,1.8,2470.089,13.33,0.025,105.6
2019-08-23T02:22:28,42.805,6.029,0.015,-0.006,0.007,101.0,103.0,100.0,13.4,1505.3,323.2,-0.7,1.8,2470.089,13.33,0.016,111.8
2019-08-23T02:25:29,42.805,6.029,0.019,-0.018,-0.003,103.0,105.0,100.0,13.4,1505.3,328.2,-0.7,1.8,2470.082,13.33,0.026,133.5
2019-08-23T02:28:30,42.805,6.029,0.013,-0.011,-0.011,102.0,103.0,99.0,13.4,1505.3,325.2,-0.7,1.9,2470.103,13.33,0.017,130.2
2019-08-23T02:31:31,42.805,6.029,-0.063,-0.009,-0.067,101.0,103.0,100.0,13.3,1505.3,324.4,-0.7,1.8,2470.094,13.33,0.063,261.9
2019-08-23T02:34:32,42.805,6.029,-0.028,-0.012,-0.046,103.0,104.0,100.0,13.4,1505.3,326.5,-0.7,1.8,2470.075,13.33,0.03,246.8
2019-08-23T02:37:33,42.805,6.029,0.037,-0.003,-0.007,103.0,105.0,99.0,13.4,1505.3,326.4,-0.7,1.9,2470.075,13.33,0.037,94.6
2019-08-23T02:40:34,42.805,6.029,0.035,-0.012,0.0,102.0,104.0,99.0,13.4,1505.3,327.2,-0.7,1.8,2470.091,13.33,0.037,108.9
2019-08-23T02:43:35,42.805,6.029,-0.012,-0.007,-0.026,102.0,106.0,98.0,13.4,1505.3,328.2,-0.7,1.9,2470.083,13.33,0.013,239.7
2019-08-23T02:46:36,42.805,6.029,0.0,-0.023,-0.042,103.0,105.0,101.0,13.3,1505.3,323.6,-0.7,1.8,2470.149,13.33,0.023,180.0
2019-08-23T02:49:37,42.805,6.029,0.007,-0.007,0.015,103.0,107.0,99.0,13.3,1505.3,325.7,-0.7,1.8,2470.095,13.33,0.009,135.0
2019-08-23T02:52:38,42.805,6.029,-0.059,0.004,-0.084,103.0,106.0,100.0,13.4,1505.3,327.5,-0.7,1.9,2470.127,13.33,0.059,273.9
2019-08-23T02:55:39,42.805,6.029,-0.023,-0.017,-0.028,105.0,104.0,100.0,13.3,1505.3,325.1,-0.7,1.8,2470.086,13.33,0.028,233.5
2019-08-23T02:58:40,42.805,6.029,-0.039,-0.009,-0.025,103.0,104.0,100.0,13.4,1505.3,326.9,-0.7,1.9,2470.104,13.33,0.04,257.0
2019-08-23T03:01:41,42.805,6.029,-0.006,-0.023,-0.036,105.0,107.0,99.0,13.3,1505.3,327.0,-0.7,1.8,2470.101,13.33,0.023,194.6
2019-08-23T03:04:42,42.805,6.029,-0.034,0.006,-0.018,104.0,105.0,100.0,13.3,1505.3,325.6,-0.7,1.8,2470.102,13.33,0.034,280.0
2019-08-23T03:07:43,42.805,6.029,0.002,-0.008,-0.025,104.0,105.0,100.0,13.3,1505.3,326.9,-0.8,1.8,2470.083,13.33,0.008,166.0
2019-08-23T03:10:44,42.805,6.029,-0.003,-0.012,-0.023,103.0,106.0,101.0,13.4,1505.3,327.4,-0.7,1.8,2470.124,13.33,0.012,194.0
2019-08-23T03:13:45,42.805,6.029,-0.004,0.004,-0.011,103.0,104.0,100.0,13.3,1505.3,323.5,-0.7,1.9,2470.106,13.33,0.005,315.0
2019-08-23T03:16:46,42.805,6.029,-0.033,-0.008,-0.012,103.0,105.0,100.0,13.3,1505.3,326.6,-0.7,1.8,2470.084,13.33,0.033,256.4
2019-08-23T03:19:47,42.805,6.029,-0.002,-0.001,-0.021,102.0,105.0,100.0,13.4,1505.3,325.4,-0.7,1.8,2470.101,13.33,0.002,243.4
2019-08-23T03:22:48,42.805,6.029,-0.012,-0.012,-0.013,103.0,105.0,99.0,13.3,1505.3,325.5,-0.7,1.8,2470.109,13.33,0.016,225.0
2019-08-23T03:25:49,42.805,6.029,0.004,-0.018,-0.029,104.0,102.0,99.0,13.4,1505.3,324.0,-0.7,1.9,2470.055,13.33,0.018,167.5
2019-08-23T03:28:50,42.805,6.029,0.036,-0.004,0.016,102.0,105.0,99.0,13.4,1505.3,324.0,-0.7,1.8,2470.086,13.33,0.036,96.3
2019-08-23T03:31:51,42.805,6.029,0.001,-0.006,0.015,102.0,105.0,100.0,13.3,1505.3,325.4,-0.7,1.8,2470.076,13.33,0.006,170.5
2019-08-23T03:34:52,42.805,6.029,-0.019,-0.027,-0.05,104.0,104.0,102.0,13.4,1505.3,326.5,-0.7,1.8,2470.03,13.33,0.033,215.1
2019-08-23T03:37:53,42.805,6.029,0.002,-0.002,-0.015,102.0,106.0,98.0,13.4,1505.3,326.4,-0.7,1.8,2470.056,13.33,0.002,135.0
2019-08-23T03:40:54,42.805,6.029,-0.007,0.0,0.001,103.0,106.0,100.0,13.4,1505.3,325.0,-0.7,1.8,2470.04,13.33,0.007,270.0
2019-08-23T03:43:55,42.805,6.029,0.009,0.004,-0.012,103.0,104.0,99.0,13.3,1505.3,326.2,-0.7,1.9,2470.05,13.33,0.009,66.0
2019-08-23T03:46:56,42.805,6.029,-0.017,-0.008,-0.011,103.0,105.0,100.0,13.4,1505.3,323.2,-0.7,1.8,2470.079,13.33,0.018,244.8
2019-08-23T03:49:57,42.805,6.029,-0.018,-0.011,-0.031,102.0,105.0,100.0,13.4,1505.3,328.4,-0.7,1.8,2470.044,13.33,0.021,238.6
2019-08-23T03:52:58,42.805,6.029,-0.006,-0.014,-0.055,102.0,107.0,98.0,13.3,1505.3,326.3,-0.8,1.8,2470.074,13.33,0.015,203.2
2019-08-23T03:55:59,42.805,6.029,-0.044,0.01,-0.057,102.0,105.0,99.0,13.3,1505.4,327.5,-0.7,1.8,2470.074,13.34,0.045,282.8
2019-08-23T03:59:00,42.805,6.029,-0.019,-0.013,-0.048,103.0,106.0,99.0,13.4,1505.4,326.5,-0.7,1.8,2470.057,13.34,0.023,235.6
2019-08-23T04:02:01,42.805,6.029,-0.007,-0.016,-0.013,102.0,106.0,100.0,13.3,1505.4,325.0,-0.7,1.8,2470.081,13.34,0.017,203.6
2019-08-23T04:05:02,42.805,6.029,0.006,-0.014,-0.046,103.0,105.0,99.0,13.4,1505.4,326.1,-0.7,1.9,2470.071,13.34,0.015,156.8
2019-08-23T04:08:03,42.805,6.029,-0.009,0.004,-0.052,103.0,105.0,99.0,13.3,1505.4,323.5,-0.7,1.8,2470.059,13.34,0.009,294.0
2019-08-23T04:11:04,42.805,6.029,0.018,-0.005,-0.002,102.0,108.0,98.0,13.4,1505.3,327.0,-0.7,1.9,2470.061,13.33,0.018,105.5
2019-08-23T04:14:05,42.805,6.029,-0.026,0.007,-0.062,102.0,105.0,98.0,13.3,1505.3,327.7,-0.7,1.8,2470.078,13.33,0.026,285.1
2019-08-23T04:17:06,42.805,6.029,-0.005,-0.013,-0.021,102.0,106.0,98.0,13.4,1505.3,324.9,-0.7,1.8,2470.047,13.33,0.013,201.0
2019-08-23T04:20:07,42.805,6.029,0.031,0.012,-0.007,101.0,107.0,99.0,13.3,1505.3,324.5,-0.7,1.9,2470.028,13.33,0.033,68.8
2019-08-23T04:23:08,42.805,6.029,0.0,0.023,-0.015,101.0,104.0,100.0,13.4,1505.4,327.9,-0.7,1.8,2470.079,13.34,0.023,0.0
2019-08-23T04:26:09,42.805,6.029,0.031,0.007,-0.017,101.0,105.0,99.0,13.3,1505.4,322.9,-0.7,1.9,2470.062,13.34,0.031,77.3
2019-08-23T04:29:10,42.805,6.029,0.055,0.0,0.004,100.0,104.0,98.0,13.4,1505.4,325.4,-0.7,1.8,2470.066,13.34,0.055,90.0
2019-08-23T04:32:11,42.805,6.029,0.032,0.007,0.002,104.0,102.0,97.0,13.3,1505.4,327.7,-0.7,1.8,2470.033,13.34,0.032,77.7
2019-08-23T04:35:12,42.805,6.029,-0.018,-0.001,-0.03,102.0,103.0,98.0,13.4,1505.4,325.1,-0.7,1.8,2470.067,13.34,0.018,266.8
2019-08-23T04:38:13,42.805,6.029,-0.011,-0.002,-0.041,102.0,105.0,99.0,13.3,1505.4,326.4,-0.7,1.9,2470.056,13.34,0.011,259.7
2019-08-23T04:41:14,42.805,6.029,-0.013,-0.012,-0.018,103.0,104.0,100.0,13.3,1505.4,323.9,-0.7,1.8,2470.052,13.34,0.017,227.3
2019-08-23T04:44:15,42.805,6.029,-0.017,-0.001,-0.049,103.0,104.0,100.0,13.4,1505.4,328.3,-0.7,1.8,2470.038,13.34,0.017,266.6
2019-08-23T04:47:16,42.805,6.029,-0.01,0.013,-0.019,104.0,105.0,99.0,13.4,1505.4,323.7,-0.7,1.8,2470.07,13.34,0.016,322.4
2019-08-23T04:50:17,42.805,6.029,0.008,-0.024,-0.037,102.0,106.0,100.0,13.4,1505.3,323.2,-0.7,1.9,2470.052,13.33,0.025,161.6
2019-08-23T04:53:18,42.805,6.029,0.006,-0.008,-0.032,104.0,104.0,100.0,13.4,1505.3,325.8,-0.7,1.8,2470.059,13.33,0.01,143.1
2019-08-23T04:56:19,42.805,6.029,0.007,0.004,-0.048,99.0,105.0,99.0,13.3,1505.3,327.0,-0.7,1.8,2470.079,13.33,0.008,60.3
2019-08-23T04:59:20,42.805,6.029,-0.008,-0.002,-0.008,103.0,104.0,98.0,13.4,1505.3,326.8,-0.7,1.9,2470.088,13.33,0.008,256.0
2019-08-23T05:02:21,42.805,6.029,0.011,0.011,-0.004,104.0,104.0,98.0,13.4,1505.3,325.3,-0.7,1.8,2470.068,13.33,0.015,45.0
2019-08-23T05:05:22,42.805,6.029,0.002,-0.02,0.011,102.0,104.0,99.0,13.3,1505.3,326.5,-0.7,1.8,2470.063,13.33,0.02,174.3
2019-08-23T05:08:23,42.805,6.029,0.003,-0.001,-0.005,100.0,105.0,100.0,13.4,1505.3,325.9,-0.7,1.8,2470.09,13.33,0.003,108.4
2019-08-23T05:11:24,42.805,6.029,0.0,0.017,0.0,104.0,105.0,99.0,13.4,1505.3,324.3,-0.7,1.8,2470.052,13.33,0.017,0.0
2019-08-23T05:14:25,42.805,6.029,-0.02,0.005,-0.061,103.0,105.0,100.0,13.4,1505.3,327.9,-0.7,1.8,2470.014,13.33,0.02,284.0
2019-08-23T05:17:26,42.805,6.029,-0.005,-0.005,-0.05,103.0,104.0,102.0,13.4,1505.3,325.4,-0.7,1.9,2470.049,13.33,0.007,225.0
2019-08-23T05:20:27,42.805,6.029,-0.018,0.001,-0.046,103.0,102.0,100.0,13.4,1505.3,325.4,-0.7,1.8,2470.024,13.33,0.018,273.2
2019-08-23T05:23:28,42.805,6.029,-0.013,0.008,-0.024,102.0,103.0,100.0,13.3,1505.4,323.5,-0.7,1.9,2470.031,13.34,0.015,301.6
2019-08-23T05:26:29,42.805,6.029,-0.004,0.002,-0.04,102.0,103.0,98.0,13.4,1505.4,328.6,-0.7,1.9,2470.03,13.34,0.004,296.6
2019-08-23T05:29:30,42.805,6.029,0.001,0.001,-0.023,104.0,105.0,98.0,13.4,1505.4,324.8,-0.7,1.9,2470.045,13.34,0.001,45.0
2019-08-23T05:32:31,42.805,6.029,-0.006,0.004,-0.024,103.0,104.0,101.0,13.3,1505.4,322.9,-0.7,1.9,2470.027,13.34,0.007,303.7
2019-08-23T05:35:32,42.805,6.029,0.014,-0.021,-0.004,102.0,105.0,99.0,13.3,1505.4,324.8,-0.7,1.9,2470.043,13.34,0.025,146.3
2019-08-23T05:38:33,42.805,6.029,-0.016,-0.001,-0.032,101.0,105.0,102.0,13.4,1505.4,323.8,-0.7,1.8,2470.035,13.34,0.016,266.4
2019-08-23T05:41:34,42.805,6.029,-0.02,-0.018,-0.062,103.0,105.0,100.0,13.3,1505.3,325.3,-0.7,1.8,2470.041,13.33,0.026,228.0
2019-08-23T05:44:35,42.805,6.029,-0.023,0.014,-0.011,104.0,105.0,98.0,13.4,1505.3,324.5,-0.8,1.8,2470.029,13.33,0.026,301.3
2019-08-23T05:47:36,42.805,6.029,0.033,-0.006,-0.033,105.0,105.0,100.0,13.4,1505.3,328.6,-0.7,1.8,2470.066,13.33,0.033,100.3
2019-08-23T05:50:37,42.805,6.029,-0.012,-0.001,0.003,103.0,105.0,99.0,13.3,1505.3,326.4,-0.7,1.8,2470.039,13.33,0.012,265.2
2019-08-23T05:53:38,42.805,6.029,-0.007,-0.011,-0.039,103.0,105.0,100.0,13.3,1505.3,325.9,-0.7,1.9,2470.055,13.33,0.013,212.5
2019-08-23T05:56:39,42.805,6.029,-0.031,0.019,-0.054,103.0,105.0,100.0,13.4,1505.3,327.2,-0.7,1.8,2470.057,13.33,0.036,301.5
2019-08-23T05:59:40,42.805,6.029,-0.022,0.006,-0.062,100.0,103.0,100.0,13.3,1505.3,328.0,-0.7,1.9,2470.023,13.33,0.022,285.3
2019-08-23T06:02:41,42.805,6.029,-0.016,-0.006,-0.042,101.0,104.0,100.0,13.4,1505.3,325.8,-0.7,1.8,2470.045,13.33,0.017,249.4
2019-08-23T06:05:42,42.805,6.029,-0.007,-0.004,-0.063,104.0,105.0,98.0,13.4,1505.3,325.1,-0.7,1.9,2470.051,13.33,0.008,240.3
2019-08-23T06:08:43,42.805,6.029,-0.036,0.002,-0.05,101.0,105.0,99.0,13.3,1505.3,325.6,-0.7,1.9,2470.098,13.33,0.036,273.2
2019-08-23T06:11:44,42.805,6.029,-0.021,-0.019,-0.047,102.0,105.0,100.0,13.3,1505.3,325.2,-0.7,1.8,2470.065,13.33,0.028,227.9
2019-08-23T06:14:45,42.805,6.029,-0.045,0.0,-0.053,103.0,106.0,98.0,13.4,1505.4,324.8,-0.7,1.8,2470.03,13.34,0.045,270.0
2019-08-23T06:17:46,42.805,6.029,-0.048,0.0,-0.095,100.0,105.0,98.0,13.4,1505.4,327.3,-0.7,1.8,2470.041,13.34,0.048,270.0
2019-08-23T06:20:47,42.805,6.029,-0.027,-0.013,-0.093,104.0,104.0,98.0,13.4,1505.4,323.8,-0.7,1.8,2470.02,13.34,0.029,244.3
2019-08-23T06:23:48,42.805,6.029,-0.046,0.009,-0.065,102.0,105.0,99.0,13.4,1505.4,323.1,-0.7,1.8,2470.018,13.34,0.046,281.1
2019-08-23T06:26:49,42.805,6.029,-0.063,-0.008,-0.084,101.0,107.0,101.0,13.3,1505.4,323.5,-0.7,1.8,2470.071,13.34,0.063,262.8
2019-08-23T06:29:50,42.805,6.029,-0.064,-0.012,-0.085,102.0,107.0,99.0,13.4,1505.4,322.9,-0.7,1.8,2470.065,13.34,0.065,259.4
2019-08-23T06:32:51,42.805,6.029,-0.02,0.003,-0.048,100.0,107.0,99.0,13.4,1505.4,325.9,-0.7,1.8,2470.054,13.34,0.02,278.5
2019-08-23T06:35:52,42.805,6.029,-0.008,-0.005,-0.017,102.0,107.0,99.0,13.4,1505.4,327.6,-0.7,1.8,2470.072,13.34,0.009,238.0
2019-08-23T06:38:53,42.805,6.029,-0.02,-0.014,-0.067,101.0,108.0,99.0,13.3,1505.3,325.0,-0.7,1.8,2470.06,13.33,0.024,235.0
2019-08-23T06:41:54,42.805,6.029,-0.013,0.013,-0.032,101.0,109.0,99.0,13.3,1505.3,326.2,-0.7,1.8,2470.055,13.33,0.018,315.0
2019-08-23T06:44:55,42.805,6.029,-0.028,0.013,-0.07,102.0,107.0,99.0,13.3,1505.4,324.5,-0.7,1.8,2470.055,13.34,0.03,294.9
2019-08-23T06:47:56,42.805,6.029,-0.029,-0.012,-0.083,101.0,107.0,98.0,13.4,1505.4,324.5,-0.8,1.8,2470.025,13.34,0.031,247.5
2019-08-23T06:50:57,42.805,6.029,0.001,0.003,-0.04,101.0,107.0,100.0,13.4,1505.4,327.7,-0.7,1.8,2470.014,13.34,0.003,18.4
2019-08-23T06:53:58,42.805,6.029,-0.033,0.007,-0.063,101.0,107.0,98.0,13.4,1505.4,324.4,-0.7,1.8,2470.03,13.34,0.033,282.0
2019-08-23T06:56:59,42.805,6.029,-0.008,0.003,-0.023,101.0,107.0,99.0,13.3,1505.4,326.5,-0.7,1.8,2470.047,13.34,0.008,290.6
2019-08-23T07:00:00,42.805,6.029,0.013,0.003,0.007,101.0,108.0,99.0,13.3,1505.4,325.8,-0.7,1.8,2470.055,13.34,0.013,77.0
2019-08-23T07:03:01,42.805,6.029,0.028,-0.002,0.0,104.0,107.0,99.0,13.4,1505.4,323.0,-0.7,1.8,2470.046,13.34,0.028,94.1
2019-08-23T07:06:02,42.805,6.029,0.038,0.004,-0.009,103.0,107.0,100.0,13.4,1505.4,324.0,-0.7,1.8,2470.023,13.34,0.038,84.0
2019-08-23T07:09:03,42.805,6.029,0.039,0.016,0.004,100.0,107.0,99.0,13.4,1505.4,326.0,-0.7,1.8,2470.046,13.34,0.042,67.7
2019-08-23T07:12:04,42.805,6.029,0.009,-0.018,-0.011,99.0,106.0,99.0,13.4,1505.4,326.6,-0.7,1.8,2469.995,13.34,0.02,153.4
2019-08-23T07:15:05,42.805,6.029,0.036,-0.002,-0.016,103.0,106.0,98.0,13.4,1505.3,328.2,-0.7,1.9,2470.044,13.33,0.036,93.2
2019-08-23T07:18:06,42.805,6.029,0.022,0.013,-0.042,101.0,106.0,98.0,13.4,1505.3,326.3,-0.7,1.9,2470.026,13.33,0.025,59.4
2019-08-23T07:21:07,42.805,6.029,-0.004,0.005,-0.03,102.0,106.0,99.0,13.4,1505.3,323.0,-0.7,1.8,2470.054,13.33,0.006,321.3
2019-08-23T07:24:08,42.805,6.029,0.017,-0.011,-0.023,101.0,105.0,99.0,13.4,1505.3,323.1,-0.7,1.8,2470.016,13.33,0.02,122.9
2019-08-23T07:27:09,42.805,6.029,-0.025,0.008,-0.047,101.0,105.0,98.0,13.4,1505.3,323.0,-0.7,1.8,2470.076,13.33,0.026,287.7
2019-08-23T07:30:10,42.805,6.029,0.016,0.008,-0.017,100.0,106.0,98.0,13.3,1505.3,324.6,-0.7,1.9,2470.071,13.33,0.017,63.4
2019-08-23T07:33:11,42.805,6.029,0.027,-0.003,-0.01,102.0,107.0,98.0,13.4,1505.3,326.1,-0.7,1.8,2470.07,13.33,0.027,96.3
2019-08-23T07:36:12,42.805,6.029,-0.015,0.012,-0.054,102.0,106.0,100.0,13.3,1505.3,326.9,-0.7,1.8,2469.988,13.33,0.019,308.7
2019-08-23T07:39:13,42.805,6.029,0.012,-0.01,0.003,100.0,107.0,97.0,13.4,1505.3,326.0,-0.7,1.8,2470.061,13.33,0.015,129.8
2019-08-23T07:42:14,42.805,6.029,0.024,0.014,-0.021,102.0,106.0,99.0,13.4,1505.3,324.7,-0.7,1.8,2470.062,13.33,0.027,59.7
2019-08-23T07:45:15,42.805,6.029,-0.001,-0.01,-0.034,104.0,106.0,98.0,13.4,1505.4,328.4,-0.7,1.9,2470.037,13.34,0.01,185.7
2019-08-23T07:48:16,42.805,6.029,-0.018,0.0,-0.064,101.0,106.0,99.0,13.4,1505.4,326.7,-0.7,1.8,2470.011,13.34,0.018,270.0
2019-08-23T07:51:17,42.805,6.029,-0.02,-0.016,-0.083,100.0,105.0,100.0,13.4,1505.4,327.1,-0.7,1.8,2470.01,13.34,0.025,231.3
2019-08-23T07:54:18,42.805,6.029,-0.011,0.0,-0.059,101.0,105.0,99.0,13.3,1505.4,324.6,-0.7,1.8,2470.072,13.34,0.011,270.0
2019-08-23T07:57:19,42.805,6.029,-0.036,0.006,-0.053,100.0,107.0,99.0,13.3,1505.3,328.3,-0.7,1.8,2470.048,13.33,0.036,279.5
2019-08-23T08:00:20,42.805,6.029,-0.023,-0.001,-0.062,102.0,105.0,99.0,13.4,1505.3,323.6,-0.7,1.8,2470.053,13.33,0.023,267.5
2019-08-23T08:03:21,42.805,6.029,-0.036,0.012,-0.037,102.0,106.0,98.0,13.4,1505.4,323.9,-0.7,1.8,2470.064,13.34,0.037,288.4
2019-08-23T08:06:22,42.805,6.029,-0.019,0.007,-0.033,103.0,107.0,98.0,13.4,1505.4,325.3,-0.7,1.8,2470.065,13.34,0.02,290.2
2019-08-23T08:09:23,42.805,6.029,0.025,-0.007,0.014,103.0,107.0,98.0,13.4,1505.3,323.6,-0.7,1.8,2470.042,13.33,0.025,105.6
2019-08-23T08:12:24,42.805,6.029,0.018,-0.011,-0.046,101.0,107.0,98.0,13.4,1505.3,324.5,-0.7,1.9,2470.033,13.33,0.021,121.4
2019-08-23T08:15:25,42.805,6.029,0.015,0.014,-0.009,102.0,107.0,99.0,13.3,1505.3,327.3,-0.7,1.8,2470.024,13.33,0.02,47.0
2019-08-23T08:18:26,42.805,6.029,0.035,0.014,-0.001,103.0,106.0,99.0,13.4,1505.3,325.8,-0.7,1.8,2470.12,13.33,0.037,68.2
2019-08-23T08:21:27,42.805,6.029,0.036,0.004,-0.021,102.0,107.0,100.0,13.4,1505.3,325.2,-0.7,1.9,2470.056,13.33,0.036,83.7
2019-08-23T08:24:28,42.805,6.029,0.032,-0.008,0.011,103.0,105.0,99.0,13.4,1505.3,324.9,-0.7,1.8,2470.043,13.33,0.032,104.0
2019-08-23T08:27:29,42.805,6.029,0.03,-0.011,-0.011,104.0,105.0,100.0,13.4,1505.3,325.0,-0.7,1.8,2470.065,13.33,0.031,110.1
2019-08-23T08:30:30,42.805,6.029,-0.001,0.0,-0.054,102.0,106.0,99.0,13.4,1505.3,327.5,-0.7,1.8,2470.08,13.33,0.001,270.0
2019-08-23T08:33:31,42.805,6.029,0.001,-0.004,-0.046,102.0,105.0,100.0,13.4,1505.3,324.3,-0.7,1.8,2470.045,13.33,0.004,166.0
2019-08-23T08:36:32,42.805,6.029,0.032,-0.014,-0.009,102.0,104.0,99.0,13.4,1505.3,326.4,-0.7,1.8,2470.045,13.33,0.034,113.6
2019-08-23T08:39:33,42.805,6.029,0.007,-0.011,-0.042,102.0,104.0,98.0,13.4,1505.3,325.2,-0.7,1.9,2470.009,13.33,0.013,147.5
2019-08-23T08:42:34,42.805,6.029,-0.002,-0.012,-0.06,104.0,106.0,99.0,13.4,1505.3,325.8,-0.7,1.8,2470.08,13.33,0.012,189.5
2019-08-23T08:45:35,42.805,6.029,0.026,0.0,-0.001,103.0,106.0,98.0,13.4,1505.3,323.9,-0.7,1.8,2470.057,13.33,0.026,90.0
2019-08-23T08:48:36,42.805,6.029,0.026,-0.019,-0.032,101.0,106.0,101.0,13.3,1505.3,323.2,-0.7,1.8,2470.095,13.33,0.032,126.2
2019-08-23T08:51:37,42.805,6.029,0.007,0.004,-0.037,101.0,105.0,99.0,13.4,1505.3,327.8,-0.7,1.8,2470.058,13.33,0.008,60.3
2019-08-23T08:54:38,42.805,6.029,0.017,0.01,-0.05,102.0,106.0,99.0,13.4,1505.3,327.9,-0.7,1.8,2470.099,13.33,0.019,59.5
2019-08-23T08:57:39,42.805,6.029,0.037,-0.005,-0.012,102.0,106.0,99.0,13.4,1505.3,324.4,-0.7,1.9,2470.093,13.33,0.037,97.7
2019-08-23T09:00:40,42.805,6.029,0.013,-0.001,-0.038,103.0,103.0,99.0,13.4,1505.3,324.8,-0.7,1.8,2470.061,13.33,0.013,94.4
2019-08-23T09:03:41,42.805,6.029,0.01,-0.014,-0.051,102.0,105.0,99.0,13.4,1505.3,324.7,-0.7,1.8,2470.109,13.33,0.017,144.5
2019-08-23T09:06:42,42.805,6.029,0.006,0.01,-0.022,101.0,104.0,99.0,13.4,1505.3,324.1,-0.7,1.8,2470.053,13.33,0.011,31.0
2019-08-23T09:09:43,42.805,6.029,-0.006,-0.011,-0.069,101.0,104.0,98.0,13.4,1505.3,324.4,-0.7,1.9,2470.078,13.33,0.012,208.6
2019-08-23T09:12:44,42.805,6.029,0.035,-0.016,-0.028,100.0,107.0,98.0,13.4,1505.3,323.2,-0.7,1.8,2470.141,13.33,0.038,114.6
2019-08-23T09:15:45,42.805,6.029,0.012,0.003,0.004,101.0,105.0,99.0,13.3,1505.3,324.3,-0.7,1.8,2470.062,13.33,0.012,76.0
2019-08-23T09:18:46,42.805,6.029,0.017,0.003,-0.02,101.0,108.0,99.0,13.3,1505.3,328.4,-0.7,1.8,2470.096,13.33,0.017,80.0
2019-08-23T09:21:47,42.805,6.029,0.039,0.0,-0.02,102.0,103.0,99.0,13.4,1505.3,327.5,-0.7,1.9,2470.065,13.33,0.039,90.0
2019-08-23T09:24:48,42.805,6.029,0.028,0.015,0.001,102.0,105.0,99.0,13.4,1505.3,328.4,-0.7,1.9,2470.101,13.33,0.031,61.8
2019-08-23T09:27:49,42.805,6.029,-0.004,-0.005,-0.036,102.0,105.0,100.0,13.4,1505.3,324.6,-0.7,1.9,2470.124,13.33,0.006,218.7
2019-08-23T09:30:50,42.805,6.029,-0.002,-0.004,-0.003,103.0,105.0,98.0,13.4,1505.3,325.6,-0.7,1.8,2470.081,13.33,0.004,206.6